Starlink 4787

operational
NORAD ID: 53904 Int'l Des: 2022-119 Owner: SPXS Country: US Constellation: starlink
LEOCIRCULAR

关于 Starlink 4787

正在加载描述...

实时位置

正在加载3D地球...

即将过境

高度历史

Altitude vs Time

uPlot chart will show altitude changes over time

两行轨道根数

1 53904U 22119U 26034.53246934 -.00001609 00000-0 -83029-4 0 9991
2 53904 53.2164 117.0593 0001365 86.7569 273.3580 15.08841388186533
Epoch: Feb 3, 2026 • Age: 18 hours

当前状态

高度 544.5 km
速度 7.59 km/s
星下点 -16.33°S, 64.48°E
发射日期 Sep 24, 2022
运行时间 3.3 years
类型 internet

技术详情

分类 Payload
质量 305.00 kg
干质量 290.00 kg
总质量 305.00 kg
长度 0.20 m
直径 2.80 m
跨度 9.00 m
形状 Box + pan
制造商 SPXS
平台类型 Starlink
阶段状态 In Orbit
所有者/国家 SPXS/US

大型星座

Loading constellations...